Theta_e
310 309 309 307 306 306 306 307 308 309 310 311 312 312 313 313 312 312 312 310 311 308 307 307 309 309 309 313 314 315 317 317 318 318 319 318 319 319 321 322 323 326 330 342 352
310 309 309 309 309 309 310 310 310 311 311 311 312 312 312 312 313 313 313 310 309 308 308 311 310 308 309 312 313 315 317 318 318 318 318 318 317 318 319 321 322 324 334 343 349
312 312 312 312 312 312 312 312 312 312 312 312 311 311 312 312 314 315 314 315 312 309 310 310 311 309 311 312 314 315 316 318 316 315 315 316 316 316 317 319 321 324 327 337 342
313 313 313 313 313 313 313 312 312 312 312 312 310 310 310 311 321 318 318 311 311 306 310 310 310 311 313 313 313 314 315 315 315 314 315 316 315 316 316 317 318 319 323 322 323
313 313 313 313 312 312 312 312 311 311 310 310 310 309 310 314 315 316 314 311 306 309 310 311 312 313 315 314 313 314 314 314 314 314 314 314 314 315 314 315 315 317 317 318 320
313 313 313 313 312 311 311 311 310 308 308 308 309 310 311 315 315 315 314 313 313 313 311 312 314 314 313 313 314 314 314 313 313 314 315 315 315 314 314 314 314 315 316 317 319
313 312 313 312 312 310 310 310 309 308 308 310 312 310 311 314 313 315 313 315 316 314 313 312 312 311 312 313 312 313 315 317 317 316 317 316 316 316 315 314 314 315 316 317 318
313 312 312 312 311 309 309 309 309 307 310 312 311 311 313 314 313 314 317 319 317 317 313 312 310 311 311 312 315 317 318 318 318 319 318 316 318 319 318 316 315 315 315 316 318
310 310 310 310 308 308 308 308 308 309 312 311 310 311 315 314 313 313 314 318 317 314 312 311 310 311 310 314 317 318 318 318 318 319 319 318 320 321 319 318 317 316 317 317 318
310 310 309 309 308 308 308 308 309 312 312 311 311 311 314 315 315 315 314 317 315 312 311 311 312 313 312 313 316 318 318 318 319 320 318 319 320 321 320 320 320 319 319 318 319
309 308 308 308 308 308 307 309 315 316 312 316 317 316 316 316 316 314 313 317 315 313 314 312 313 312 313 314 317 318 319 319 319 320 320 320 321 321 321 321 321 321 320 319 320
309 307 307 307 307 307 307 313 314 315 317 318 316 316 316 316 318 315 313 317 317 317 315 314 313 313 313 314 315 318 319 320 319 320 319 321 321 321 322 322 322 322 321 321 321
309 307 306 306 306 307 309 310 311 314 318 319 317 317 317 316 318 315 314 317 318 318 317 316 316 315 315 317 318 318 319 319 319 320 320 320 321 321 322 321 321 322 321 322 322
308 305 306 306 310 311 310 312 313 313 323 322 319 318 317 317 319 317 313 317 318 318 317 317 318 317 317 318 318 319 319 319 319 320 321 320 321 322 321 321 321 321 323 323 323
304 303 305 305 305 308 310 312 314 315 327 323 321 319 318 318 320 318 313 315 317 317 317 317 317 318 318 318 318 319 319 320 320 321 321 321 321 321 321 321 322 322 322 324 325
302 301 304 304 308 306 310 311 314 323 326 325 322 322 321 319 319 319 316 314 315 318 318 317 317 318 317 317 319 319 319 320 320 320 321 321 321 321 321 321 322 323 325 325 325
299 301 301 303 309 309 311 313 323 323 320 325 325 323 322 321 320 318 317 316 317 318 319 318 318 318 319 319 320 319 321 321 321 320 320 320 320 321 322 322 324 326 325 326 327
298 300 303 307 308 312 312 320 322 319 322 324 323 323 324 321 320 320 320 319 318 319 320 319 319 319 319 319 319 320 321 321 321 321 321 320 319 320 322 325 324 324 326 326 327
298 303 308 312 312 311 317 323 321 321 322 322 323 318 321 322 319 320 321 321 320 320 321 321 320 319 319 319 320 320 321 321 322 321 321 321 321 322 324 325 325 325 326 327 327
299 307 312 316 312 312 320 321 321 320 322 322 323 321 319 324 324 322 321 321 320 321 321 322 323 321 322 322 321 320 322 322 322 323 323 321 321 321 324 324 325 326 325 325 325
306 310 314 315 312 314 321 320 320 319 321 321 323 322 320 321 324 324 323 324 324 323 321 321 322 322 322 322 322 322 323 323 325 324 325 324 323 325 325 325 325 325 324 323 323
306 311 313 312 318 319 321 320 319 319 322 321 321 322 321 317 319 320 324 322 319 323 323 324 323 326 323 323 322 323 324 325 329 326 325 325 326 326 326 325 324 324 323 323 323
306 308 312 312 322 322 320 320 319 320 320 321 320 319 319 320 320 322 322 318 319 322 324 324 326 328 327 325 324 323 324 324 326 327 328 329 327 326 326 325 324 324 324 324 324
307 312 315 315 316 319 320 320 319 317 319 319 319 317 318 318 317 320 319 317 319 320 317 320 325 326 327 325 325 326 324 324 325 331 328 326 325 325 324 323 323 323 324 324 323
307 312 311 316 316 316 317 319 319 318 317 317 318 317 318 318 317 316 318 317 318 317 319 322 324 323 322 321 320 321 322 322 323 323 324 322 320 319 318 318 316 316 316 317 318
308 309 309 309 313 315 315 318 318 318 317 318 318 317 316 316 315 314 315 318 318 318 320 319 322 320 321 318 317 318 318 318 319 318 318 317 317 316 315 317 318 318 317 317 317
306 307 308 309 311 314 316 317 317 317 315 315 317 316 316 314 313 313 313 313 315 316 317 317 317 317 314 314 314 314 314 314 315 315 314 315 318 319 318 318 316 316 317 317 316
Wind_Speed
14 14 14 16 17 17 16 16 16 16 17 19 21 20 19 19 21 21 22 12 11 10 13 8 16 16 12 11 9 8 8 13 17 15 15 5 12 16 19 14 14 14 9 10 4
16 15 15 15 15 16 17 17 17 17 17 17 18 19 20 22 23 27 21 18 18 15 15 15 17 18 15 15 10 14 11 15 9 9 12 15 15 13 16 16 21 17 8 1 3
17 16 16 16 16 17 17 17 18 19 19 19 19 18 18 18 17 8 5 11 17 20 14 13 15 17 14 13 15 12 15 9 10 15 16 18 20 18 19 20 21 18 12 5 4
17 17 17 17 17 17 18 19 18 19 20 22 21 21 18 12 7 5 4 4 17 21 16 15 17 16 12 12 14 10 13 15 13 12 16 18 21 21 21 26 23 22 12 16 14
18 17 17 18 20 20 20 20 21 22 21 22 23 23 17 11 23 16 9 4 16 19 19 19 18 16 13 11 11 15 13 13 16 18 21 22 23 22 28 27 27 28 25 25 24
19 18 18 20 21 21 21 23 23 24 23 25 26 20 10 18 11 16 16 15 12 18 18 18 11 13 7 11 14 7 11 14 16 19 17 19 20 22 19 12 24 33 35 32 28
20 19 19 21 22 23 24 24 25 26 27 25 18 11 14 29 9 11 13 19 17 17 14 17 10 12 8 7 10 10 12 14 17 20 15 9 16 24 33 30 28 30 29 30 30
21 21 21 23 24 25 25 25 26 30 24 18 11 11 14 10 16 18 12 14 16 16 12 14 12 12 10 2 8 13 10 11 6 7 14 7 13 15 15 21 27 31 29 29 30
22 22 22 24 26 26 27 28 29 20 10 7 9 11 11 9 19 21 21 12 16 14 10 15 12 11 9 12 11 10 10 8 5 3 3 11 13 10 7 12 18 24 25 25 27
24 25 25 25 26 27 29 29 17 5 3 9 3 7 13 5 8 14 24 18 19 18 15 14 12 10 10 11 13 13 12 9 8 7 5 8 17 17 14 13 16 19 21 22 25
25 26 26 25 26 27 30 18 2 5 12 13 10 10 4 3 6 13 28 25 18 21 13 19 12 16 19 17 15 4 8 10 11 8 10 14 12 14 14 10 14 18 17 18 21
26 27 26 25 26 28 19 3 6 8 15 21 26 25 20 9 7 13 32 19 21 17 13 10 16 14 10 13 13 11 11 12 12 6 5 9 14 14 10 8 7 11 12 13 19
29 29 29 28 27 20 7 17 10 5 9 10 14 19 19 17 9 22 34 23 20 19 16 12 2 13 14 13 12 12 13 12 13 11 13 15 16 14 7 7 3 6 5 6 14
30 30 29 30 12 8 20 6 6 6 6 8 7 6 13 12 9 22 34 25 14 18 17 14 11 11 17 15 13 13 12 13 14 13 11 5 11 4 1 6 5 0 4 4 7
32 30 29 23 29 17 6 5 3 3 6 6 7 4 13 15 11 23 32 25 16 14 12 12 12 17 14 16 13 13 8 10 13 13 14 15 9 11 2 11 7 3 3 8 7
31 31 30 25 17 15 9 5 4 7 7 4 5 7 10 17 6 19 24 24 19 12 17 15 13 13 18 15 10 3 7 9 9 11 13 16 15 12 10 6 3 1 5 7 9
31 28 27 24 12 8 9 7 6 8 3 2 3 6 9 13 14 10 16 19 14 16 16 14 13 12 9 11 14 9 9 7 10 10 11 7 8 12 6 3 2 5 6 7 8
32 28 22 14 10 7 15 7 9 5 6 4 4 3 7 11 16 21 24 20 23 19 10 12 13 18 15 18 13 16 14 10 9 10 10 8 7 5 5 3 1 2 4 6 8
31 22 11 5 11 18 12 10 6 3 4 1 5 5 4 5 7 17 17 23 20 18 11 12 12 6 8 17 19 16 9 14 15 9 9 6 10 6 8 7 4 2 4 7 10
29 17 4 9 11 21 8 15 5 7 8 5 5 4 2 6 12 14 16 5 12 16 18 9 4 12 11 7 7 15 6 10 10 17 17 10 8 8 11 8 4 3 5 7 8
14 10 6 4 16 16 10 12 8 13 5 6 5 5 3 6 9 1 8 5 1 9 11 12 10 8 8 11 10 8 11 11 9 6 10 11 2 11 7 2 3 3 5 6 7
9 4 5 13 8 12 12 7 2 10 3 3 9 3 6 6 3 7 4 5 3 5 11 5 5 7 11 4 3 5 9 7 8 13 8 9 7 5 4 2 2 4 4 5 4
14 6 5 8 5 9 11 9 9 6 5 5 6 8 4 8 5 10 6 1 4 3 5 6 6 8 6 12 9 10 11 9 6 4 12 10 4 5 6 3 2 3 4 1 1
6 4 3 7 7 10 11 12 7 3 3 3 4 7 7 7 5 6 7 3 2 5 5 2 6 6 1 3 2 11 10 13 12 9 12 13 12 11 6 3 4 5 8 10 7
3 3 2 4 3 10 9 11 8 4 2 4 5 12 6 4 4 5 4 8 4 3 2 1 5 5 1 1 2 2 6 9 10 11 11 11 12 10 10 13 16 19 18 18 18
5 6 10 17 10 9 7 9 8 5 3 7 7 7 4 2 2 0 2 3 1 3 2 1 4 6 11 4 8 13 14 15 16 15 16 15 16 14 10 12 13 12 14 16 16
6 7 6 10 6 8 3 9 7 4 1 6 5 7 6 6 4 3 4 3 3 1 3 3 4 5 9 2 6 10 16 18 16 14 11 12 4 8 6 6 5 5 6 5 6
Wind_Direction
333 328 324 321 320 318 315 312 310 308 308 310 311 311 310 307 303 298 278 273 256 246 223 187 180 194 196 207 210 217 243 243 241 242 254 228 252 250 256 262 245 249 274 305 271
340 336 332 327 322 318 317 315 312 309 307 305 304 307 310 313 308 285 292 252 238 221 192 167 168 174 189 204 203 214 231 246 260 275 259 268 257 263 266 253 241 238 218 15 103
339 337 335 332 328 324 320 314 311 310 308 307 306 303 304 315 307 271 248 253 225 196 187 189 180 175 197 196 203 216 248 255 233 247 257 266 265 258 253 254 242 243 209 244 228
334 332 332 331 328 323 321 318 310 303 303 304 303 301 303 306 279 301 282 266 190 176 179 177 180 191 206 207 213 241 229 251 252 256 253 259 265 263 255 256 258 246 257 267 255
335 330 328 327 327 324 318 315 311 308 305 299 298 298 302 261 251 273 264 153 170 175 185 185 189 204 218 209 197 232 249 250 253 256 255 265 266 268 262 259 257 258 263 261 262
331 326 326 325 324 321 317 312 311 311 303 297 293 288 265 256 256 242 244 221 189 186 193 196 204 210 236 217 216 177 239 252 250 252 254 253 264 261 262 254 247 251 251 253 256
331 325 322 322 321 320 317 314 311 312 303 293 280 255 242 243 259 237 217 211 204 198 205 205 213 192 201 199 222 228 248 242 235 241 239 263 254 251 255 250 245 251 251 250 251
329 327 324 320 318 318 315 313 313 312 304 293 246 201 246 255 233 228 198 197 203 201 203 200 196 211 226 210 201 221 229 243 148 217 219 210 284 285 262 233 236 247 252 249 248
331 329 324 320 319 317 315 314 317 306 312 287 182 191 261 259 236 222 201 189 173 171 182 177 175 203 198 223 211 203 239 198 236 68 151 211 286 307 297 250 233 238 247 244 245
331 328 325 321 319 317 316 315 313 322 2 127 171 212 248 231 212 200 194 186 162 154 146 171 190 206 212 204 220 215 214 214 234 142 217 246 266 278 277 246 235 237 245 238 235
332 330 326 322 321 318 319 324 272 216 213 220 233 235 290 240 187 175 174 166 168 176 185 186 197 207 205 210 240 257 250 249 259 261 273 275 274 287 287 257 243 236 244 231 226
327 327 325 322 319 314 312 243 305 290 291 261 247 242 248 280 227 175 169 171 174 191 183 176 223 207 210 206 229 239 251 253 267 270 259 265 292 283 267 266 268 233 224 223 214
326 324 325 321 321 315 296 289 280 291 268 288 231 237 231 206 219 172 180 191 189 199 192 218 204 188 200 197 218 230 248 258 267 268 280 260 268 252 215 233 258 277 256 218 214
323 321 326 321 337 300 306 293 273 242 275 163 205 218 177 189 222 190 192 189 195 201 194 225 199 192 196 212 216 243 230 248 268 266 260 182 273 144 232 278 208 32 22 7 238
320 319 323 320 303 297 280 289 129 180 285 106 139 177 166 194 122 175 184 198 201 203 198 207 213 210 211 210 218 254 254 257 254 253 259 244 244 266 163 240 186 173 0 4 347
319 318 318 314 289 302 252 232 236 236 246 146 129 188 176 205 218 151 184 208 219 210 208 217 209 218 221 215 221 177 240 230 252 251 241 242 243 250 224 222 154 126 1 4 347
320 317 309 291 264 257 218 187 229 244 68 160 146 331 249 188 178 175 178 201 203 207 211 215 215 216 233 199 199 213 234 227 217 219 242 224 228 245 69 117 328 333 345 4 3
322 320 317 288 251 180 158 214 242 273 269 71 46 257 299 197 202 188 192 197 209 205 206 214 210 215 209 225 228 210 226 245 235 238 232 143 228 229 101 122 101 18 5 8 18
326 327 306 273 196 182 193 218 257 280 352 277 98 74 272 187 211 212 198 204 194 204 214 212 215 153 199 217 224 220 226 247 277 269 286 259 168 203 169 165 160 100 65 42 36
332 327 287 285 185 178 223 248 253 260 327 262 272 134 301 261 231 205 203 211 196 205 217 237 199 213 148 190 205 242 247 207 227 254 245 233 226 272 172 178 152 124 77 64 57
335 312 298 215 153 196 232 237 254 269 288 286 238 147 135 348 342 248 198 127 83 169 214 215 245 185 188 208 199 183 224 234 293 271 252 260 281 27 62 114 167 125 101 82 73
349 292 2 142 223 219 241 222 260 270 165 197 336 189 174 135 324 22 324 28 2 240 192 208 204 264 234 40 268 271 278 275 222 246 261 287 271 89 85 86 191 158 143 117 96
327 278 242 258 257 242 258 249 239 271 251 176 160 292 171 172 169 199 190 189 316 272 184 184 205 223 219 210 213 236 214 252 254 253 237 241 249 108 100 125 165 231 156 209 267
316 299 173 216 276 297 294 271 237 220 156 182 145 267 173 181 179 174 159 158 155 107 52 255 214 230 276 352 191 212 224 231 239 249 255 250 251 159 162 228 253 256 263 257 270
301 27 358 315 273 318 296 285 279 205 119 166 171 228 229 218 193 176 164 150 142 118 94 272 252 246 176 297 324 293 222 210 237 253 261 273 286 295 301 297 288 288 281 272 268
321 336 325 287 282 294 276 265 275 217 242 198 237 169 170 228 350 325 207 217 130 151 171 152 227 268 259 258 270 266 256 252 255 260 266 268 274 271 299 312 297 300 293 275 265
310 297 292 292 278 289 319 326 327 287 153 305 214 170 139 98 81 51 68 76 81 227 167 207 226 233 256 91 281 262 246 241 249 250 265 259 327 1 331 358 343 1 16 40 77